Zurück zum Katalog

IRIDIUM 33 DEB

AktivPO
NORAD 34525·DEBRIS·🇺🇸 United States

Gestartet Sep 14, 1997 von Baikonur Cosmodrome

Loading…

Nächste Überflüge (nächste 24 Stunden)

TLE

AktuellSource: Space-Track

Epoche: Sep 13, 2026, 14:32 UTC

1 34525U 97051HS  26256.60591094  .00000638  00000-0  18276-3 0  9990
2 34525  86.3688 289.4836 0002184 251.1198 239.4538 14.43504463920528

Verfolge IRIDIUM 33 DEB in Echtzeit mit AllMySat

Download on the App Store